Home   Weather   Rancho Cucamonga   Past weeks

Flag for USA Past Weather in Rancho Cucamonga, California, USA — Yesterday and Last 2 Weeks

63 °F

Light rain. Fog.

Feels Like: 63 °F
Forecast: 56 / 76 °F
Wind: 6 mph from South

Location: Ontario International Airport

Current Time: Oct 24, 2016 at 6:25:35 PM

Latest Report: Oct 24, 2016 at 5:53 PM

Visibility: 10 mi

Pressure: 30.04 "Hg

Humidity: 81%

Dew Point: 57 °F

Location of Rancho CucamongaLocation

Past Weather in Rancho Cucamonga — Graph


Rancho Cucamonga Temperature Yesterday

Maximum temperature yesterday: 77 °F (at 2:53 PM)
Minimum temperature yesterday: 59 °F (at 2:53 AM)
Average temperature yesterday: 66 °F

High & Low Weather Summary for the Past Weeks

High96 °F (Oct 20, 3:53 PM)97% (Oct 17, 9:53 AM)30.09 "Hg (Oct 17, 9:53 AM)
Low54 °F (Oct 13, 5:53 AM)4% (Oct 20, 1:53 PM)29.78 "Hg (Oct 21, 4:53 PM)
Average68 °F54%29.94 "Hg
* Reported Oct 9 4:53 PM — Oct 24 4:53 PM, Rancho Cucamonga, Weather by CustomWeather, © 2016

Note: Actual official high and low records may vary slightly from our data, if they occured in-between our weather recording intervals... More about our weather records


Rancho Cucamonga Weather History for the Previous 24 Hours

Scroll right to see more
Time TempWeatherWind HumidityBarometerVisibility
4:53 PM
Mon, Oct 24
63 °FLight rain. Fog.No wind81%30.04 "Hg10 mi
3:53 PM63 °FThunderstorms. Mostly cloudy.6 mph84%30.04 "Hg10 mi
2:53 PM68 °FMostly cloudy.6 mph63%30.02 "Hg10 mi
1:53 PM67 °FCloudy.3 mph68%30.03 "Hg10 mi
12:53 PM68 °FPartly sunny.6 mph63%30.05 "Hg10 mi
11:53 AM67 °FBroken clouds.6 mph66%30.07 "Hg10 mi
10:53 AM66 °FBroken clouds.7 mph70%30.08 "Hg10 mi
9:53 AM65 °FPartly sunny.6 mph76%30.09 "Hg10 mi
8:53 AM63 °FLight rain. Mostly cloudy.5 mph84%30.09 "Hg9 mi
7:53 AM63 °FLight rain. Mostly cloudy.6 mph90%30.07 "Hg7 mi
7:02 AM62 °FThunderstorms. Mostly cloudy.3 mph78%30.08 "Hg5 mi
5:53 AM65 °FThunderstorms. Mostly cloudy.5 mph94%30.01 "Hg7 mi
5:02 AM65 °FThunderstorms. Overcast.No wind94%30.02 "Hg7 mi
4:53 AM64 °FFog.No wind97%29.99 "Hg5 mi
3:53 AM65 °FFog.No wind94%29.97 "Hg5 mi
2:53 AM65 °FPassing clouds.No wind94%29.98 "Hg7 mi
2:04 AM65 °FThunderstorms. Passing clouds.3 mph94%30.02 "Hg7 mi
12:53 AM64 °FPassing clouds.3 mph94%29.98 "Hg7 mi
11:53 PM
Sun, Oct 23
64 °FPassing clouds.No wind90%29.98 "Hg7 mi
10:53 PM64 °FThunderstorms. Overcast.No wind90%29.99 "Hg7 mi
9:53 PM64 °FThunderstorms. Partly cloudy.No wind90%30.00 "Hg8 mi
8:53 PM63 °FLight rain. Fog.3 mph93%30.00 "Hg5 mi
7:53 PM62 °FPartly cloudy.No wind93%30.00 "Hg8 mi
6:53 PM64 °FStrong thunderstorms. Fog.6 mph90%30.00 "Hg4 mi
Weather by CustomWeather, © 2016

See weather overviewHow to use our weather pages